Skip Page Navigation
NASA JPL Caltech
NASA Logo - Jet Propulsion Laboratory + View the NASA Portal
+ Center for Near-Earth Object Studies
JPL Home Earth Solar System Stars & Galaxies Technology
JPL Solar System Dynamics
BODIES ORBITS EPHEMERIDES TOOLS PHYSICAL DATA DISCOVERY FAQ SITE MAP
JPL Small-Body Database Browser
Search: [ help ]  
2P/Encke
Classification: Encke-type Comet [NEO]          SPK-ID: 1000025
Ephemeris | Orbit Diagram | Orbital Elements | Mission Design | Physical Parameters | Discovery Circumstances | Close-Approach Data ]

[ hide orbit diagram ]

For accurate long-term ephemerides, please instead use our Horizons system.This orbit viewer was implemented using two-body methods, and hence should not be used for determining accurate long-term trajectories (over several years or decades) or planetary encounter circumstances.


[ revert to old Java-based viewer ]

:
Orbital Elements at Epoch 2457147.5 (2015-May-05.0) TDB
Reference: JPL K204/4 (heliocentric ecliptic J2000)
 Element Value Uncertainty (1-sigma)   Units 
e .8483360282890077 5.7454e-08  
a 2.215141293583404 6.1622e-08 au
q .3359571264858844 1.2759e-07 au
i 11.78199781557852 8.5131e-06 deg
node 334.5678725687213 4.0249e-05 deg
peri 186.5446458683143 4.0514e-05 deg
M 158.2123378368123 6.1369e-06 deg
tp 2456618.277349314359
(2013-Nov-21.77734931)
1.1577e-05 TDB
period 1204.205416921038
3.30
5.0249e-05
1.376e-07
d
yr
n .2989523173882266 1.2475e-08 deg/d
Q 4.094325460680924 1.139e-07 au

Additional Model Parameters
 Parameter Value Uncertainty (1-sigma) 
A1 [EST] -2.050005447641087E-11 2.843E-11
A2 [EST] -1.85864577773765E-12 1.102E-12
A3 [EST] 3.869899660518827E-9 1.695E-10
  Orbit Determination Parameters
   # obs. used (total)      2584  
   data-arc span      3787 days (10.37 yr)  
   first obs. used      2009-08-15  
   last obs. used      2019-12-28  
   planetary ephem.      DE431  
   SB-pert. ephem.      SB431-N16  
   condition code      0  
   norm. resid. RMS      .65073  
   source      ORB  
   producer      Davide Farnocchia  
   solution date      2020-Jan-13 10:31:45  

Additional Information
 Earth MOID = .173002 au 
 Jupiter MOID = .921243 au 
 T_jup = 3.025 
[ hide covariance matrix ]
Orbit Covariance (9×9)
  e q tp node peri i A1 A2 A3
e 3.300968232795136E-15 -7.310821823867422E-15 -3.137762885598211E-15 -3.288536373003177E-14 3.286299188599801E-13 -3.560267853200668E-15 9.33574814175488E-19 1.997472406147065E-20 -1.782549959179584E-19
q -7.310821823867422E-15 1.627899154970261E-14 -3.543306038063603E-14 1.740783854916375E-14 -6.560721278903187E-13 6.724615999763559E-15 -2.183120161835409E-18 -4.451053479946157E-20 5.734128314350325E-19
tp -3.137762885598211E-15 -3.543306038063603E-14 1.34028575957341E-10 1.560319546658991E-11 -3.620253556562429E-12 3.085068664074942E-12 1.927645242088454E-16 1.854745166486369E-18 -3.095242002091821E-16
node -3.288536373003177E-14 1.740783854916375E-14 1.560319546658991E-11 1.619971000070848E-9 -1.59593703898218E-9 2.219287859633121E-10 4.604282654866353E-17 -7.106145366077109E-19 -2.647643212293869E-15
peri 3.286299188599801E-13 -6.560721278903187E-13 -3.620253556562429E-12 -1.59593703898218E-9 1.641416962263004E-9 -2.150950703028693E-10 1.74265543500077E-17 5.179916391509977E-18 2.576989524970406E-15
i -3.560267853200668E-15 6.724615999763559E-15 3.085068664074942E-12 2.219287859633121E-10 -2.150950703028693E-10 7.247245571055505E-11 1.093536115148963E-17 -2.267004683951901E-20 -6.272223280002682E-16
A1 9.33574814175488E-19 -2.183120161835409E-18 1.927645242088454E-16 4.604282654866353E-17 1.74265543500077E-17 1.093536115148963E-17 8.082885574909187E-22 8.269333577318146E-24 -3.284896792103147E-22
A2 1.997472406147065E-20 -4.451053479946157E-20 1.854745166486369E-18 -7.106145366077109E-19 5.179916391509977E-18 -2.267004683951901E-20 8.269333577318146E-24 1.214498458562627E-24 -1.608720038180472E-24
A3 -1.782549959179584E-19 5.734128314350325E-19 -3.095242002091821E-16 -2.647643212293869E-15 2.576989524970406E-15 -6.272223280002682E-16 -3.284896792103147E-22 -1.608720038180472E-24 2.871683154085773E-20

Ephemeris | Orbit Diagram | Orbital Elements | Mission Design | Physical Parameters | Discovery Circumstances | Close-Approach Data ]

Physical Parameter Table
Parameter Symbol Value Units Sigma Reference Notes
comet total magnitude M1 14.5   1. K204/4 2 parameter fit from 651 observations, autocmod 2.8
comet total magnitude slope K1 6.25   n/a K204/4 autocmod 2.8
diameter diameter 4.8 km n/a Lamy,P.L.;Toth,I.;Fernandez,Y.R.;Weaver,H.A. (2004) Comets II, pp. 223-264  
rotation period rot_per 11.083 h n/a LCDB (Rev. 2019-August); Warner et al., 2009 Result based on less than full coverage, so that the period may be wrong by 30 percent or so.
Published Reference List:
[Fernandez, Y.R.; Lowry, S.C.; Weissman, P.R.; Mueller, B.E.A.; et al. (2005) Icarus 175, 194-214.]
[Lowry, S.C.; Weissman, P.R. (2007) Icarus 188, 212-223.]
geometric albedo albedo 0.046   0.023 Earth, Moon, and Planets, v. 89, Issue 1, p. 117-134 (2002)  

2P/Encke          Discovered 1786-Jan-17 by Mechain, Pierre F. A.
Reference: comet.disLast Updated: 2003-08-29

[ show close-approach data ]
Alternate Designations
 Perihelion 
Year
(est.)
 New-Style 
Desig
Roman
 Numeral 
Year/
 Letter 
 1994.1       1994 V   
 1990.8       1990 XXI   
 1987.5       1987 XIII   
 1984.2       1984 VI   
 1980.9       1980 XI   
 1977.6       1977 XI   
 1974.3       1974 V   
 1971.0       1971 II   1970l 
 1967.7       1967 XIII   1967h 
 1964.4       1964 IV   1963h 
 1961.1       1961 I   1960i 
 1957.8       1957 VIII   1957c 
 1954.5       1954 IX   1953f 
 1951.2       1951 III   1950e 
 1948.0       1947 XI   1947i 
 1941.4       1941 V   1941b 
 1938.1       1937 VI   1937h 
 1934.8       1934 III   1934a 
 1931.5       1931 II   1931a 
 1928.2       1928 II   1927h 
 1924.9       1924 III   1924b 
 1921.6       1921 IV   1921d 
 1918.3       1918 I   1917c 
 1915.0       1914 VI   1914d 
 1911.7       1911 III   1911d 
 1908.4       1908 I   1908b 
 1905.1       1905 I   1904b 
 1901.8       1901 II   1901b 
 1898.5       1898 III   1898d 
 1895.2       1895 I   1894d 
 1891.9       1891 III   1891c 
 1888.6       1888 II   1888b 
 1885.3       1885 I   1884d 
 1882.0       1881 VII   1881d 
 1878.7       1878 II   1878c 
 1875.4       1875 II   1875a 
 1872.1       1871 V   1871c 
 1868.8       1868 III   
 1865.5       1865 II   
 1862.2       1862 I   
 1858.9       1858 VIII   
 1855.6       1855 III   
 1852.3       1852 I   
 1849.0       1848 II   
 1845.7       1845 IV   
 1842.4       1842 I   
 1839.2       1838    
 1835.9       1835 II   
 1832.6       1832 I   
 1829.3       1829    
 1826.0       1825 III   
 1822.7   2P/1822 L1   1822 II   
 1819.4   2P/1818 W1   1819 I   
 1806.2   2P/1805 U1   1805    
 1796.3   2P/1795 V1   1795    
 1786.4   2P/1786 B1   1786 I   
Ephemeris | Orbit Diagram | Orbital Elements | Mission Design | Physical Parameters | Discovery Circumstances | Close-Approach Data ]
ABOUT SSD CREDITS/AWARDS PRIVACY/COPYRIGHT GLOSSARY LINKS
FirstGov 2020-Aug-05 20:39 UT
(server date/time)  
NASA Home Page
Site Manager:   Ryan S. Park
Webmaster  Alan B. Chamberlin